[[{"header":{"parameterUnit":"m.s-1","parameterCategory":1,"la1":30.2991,"la2":30.254,"lo1":-89.0895,"lo2":-89.0444,"dy":0.0017,"dx":0.0017,"nx":28,"ny":28,"refTime":"2024-03-12T09:00:00:Z","depth":0,"parameterNumber":2,"parameterNumberName":"U-component_of_WINDS"},"data":[0,0,0,0,0,0,0,0,0,0,0,0,0,0,0,0,0,0,0,0,0,0,0,0,0,0,0,0,0,0,0,0,0,0,0,0,0,0,0,0,0,0,0,0,0,0,0,0,0,0,0,0,0,0,0,0,0,0,-4.3598,-4.3599,0,-4.3704,-4.3705,-4.3706,-4.3698,-4.3696,-4.3695,-4.3693,-4.3797,-4.3802,-4.3806,0,0,0,0,0,0,0,0,0,0,0,0,0,-4.3389,-4.3393,-4.3598,-4.36,-4.3601,-4.3703,-4.3705,-4.3706,-4.3698,-4.3696,-4.3694,-4.3693,-4.3796,-4.3801,-4.3806,0,0,0,0,0,0,0,0,0,0,0,0,0,-4.3486,-4.3395,-4.3598,-4.3609,-4.3611,-4.3703,-4.3705,-4.3707,-4.3699,-4.3696,-4.3694,-4.3692,-4.3794,-4.3801,-4.3807,-4.3893,0,0,-4.3826,-4.3829,0,0,0,0,0,0,0,0,-4.348,-4.3494,-4.3606,-4.3609,-4.3611,-4.3685,-4.3669,-4.3769,-4.3699,-4.3665,-4.3693,-4.3691,-4.3762,-4.3771,-4.3795,-4.3898,-4.3902,-4.3827,-4.3831,-4.3833,-4.3835,0,0,0,0,0,0,0,-4.3474,-4.3489,-4.364,-4.3608,-4.3611,-4.3609,-4.362,-4.3688,-4.3725,-4.3668,-4.3668,-4.3681,-4.3763,-4.3789,-4.3798,-4.3904,-4.3827,-4.3832,-4.3836,-4.3839,-4.4084,-4.4087,0,0,0,0,0,0,-4.3465,-4.3483,-4.3636,-4.3643,-4.3539,-4.3615,-4.3627,-4.3664,-4.3725,-4.3732,-4.3683,-4.368,-4.378,-4.379,-4.3801,-4.3906,-4.3833,-4.3839,-4.3843,-4.4082,-4.4085,-4.4088,0,0,0,0,0,0,-4.346,-4.3479,-4.3632,-4.3563,-4.3583,-4.3621,-4.3662,-4.3667,-4.3694,-4.3736,-4.3742,-4.3703,-4.3778,-4.3793,-4.3871,-4.391,-4.3842,-4.3848,-4.4079,-4.4083,-4.4087,-4.4117,0,0,0,0,0,0,-4.3454,-4.3477,-4.351,-4.3564,-4.3586,-4.37,-4.3665,-4.3671,-4.3705,-4.3703,-4.3756,-4.3763,-4.3777,-4.3862,-4.3877,-4.3917,-4.3853,-4.4075,-4.408,-4.4085,-4.4112,-4.4122,-4.4129,0,0,0,0,0,-4.3447,-4.3513,-4.3511,-4.353,-4.3628,-4.3702,-4.3715,-4.3731,-4.3708,-4.3742,-4.3769,-4.3761,-4.3904,-4.387,-4.3887,-4.393,-4.4073,-4.4079,-4.4085,-4.4109,-4.412,-4.4129,0,0,0,0,0,0,-4.3459,-4.352,-4.3519,-4.3605,-4.3649,-4.3701,-4.3743,-4.3742,-4.3792,-4.3787,-4.3805,-4.3818,-4.3896,-4.3922,-4.3882,-4.4018,-4.3985,-4.3995,-4.3997,-4.4008,-4.4017,-4.4007,-4.3858,0,0,0,0,0,-4.3473,-4.3528,-4.3578,-4.3649,-4.3671,-4.3704,-4.3736,-4.3746,-4.3792,-4.3809,-4.3842,-4.3886,-4.3942,-4.3977,-4.403,-4.4118,-4.4129,-4.4156,-4.4165,-4.4171,-4.4179,-4.4228,-4.424,-4.4108,-4.4108,-4.4108,0,0,-4.3499,-4.354,-4.3573,-4.3653,-4.3688,-4.3744,-4.3719,-4.378,-4.3822,-4.3818,-4.3894,-4.3921,-4.3971,-4.4055,-4.4094,-4.4079,-4.4219,-4.4179,-4.4184,-4.4188,-4.4236,-4.4248,-4.4259,-4.4112,-4.4112,-4.4111,0,0,-4.3576,-4.3613,-4.3676,-4.3713,-4.3768,-4.379,-4.3806,-4.3859,-4.3877,-4.3955,-4.3954,-4.4005,-4.4099,-4.4135,-4.4166,-4.4263,-4.4258,-4.428,-4.4322,-4.437,-4.4381,-4.439,-4.4423,-4.4435,-4.4288,-4.4288,-4.4288,0,-4.3602,-4.3688,-4.3708,-4.3771,-4.3806,-4.3809,-4.3873,-4.3908,-4.3977,-4.4001,-4.3984,-4.4104,-4.4138,-4.4231,-4.4255,-4.4281,-4.4299,-4.4272,-4.4378,-4.4387,-4.4396,-4.4428,-4.4441,-4.4291,-4.429,-4.429,-4.429,0,-4.3716,-4.3777,-4.3821,-4.389,-4.3931,-4.3994,-4.4024,-4.4063,-4.4071,-4.4095,-4.4175,-4.4217,-4.4279,-4.4303,-4.431,-4.4398,-4.4387,-4.4374,-4.4341,-4.4411,-4.4441,-4.4454,-4.4294,-4.4293,-4.4292,-4.4292,0,0,-4.3798,-4.3882,-4.3897,-4.3929,-4.3993,-4.4039,-4.4104,-4.4167,-4.4199,-4.4249,-4.4302,-4.4385,-4.4375,-4.441,-4.4422,-4.4464,-4.4538,-4.4447,-4.4448,-4.446,-4.4638,-4.4645,-4.4658,-4.4537,-4.454,-4.4542,-4.4633,0,-4.388,-4.3994,-4.4017,-4.4116,-4.4172,-4.4179,-4.4235,-4.428,-4.4306,-4.4357,-4.4385,-4.4443,-4.4426,-4.4447,-4.449,-4.452,-4.4574,-4.4514,-4.4586,-4.4588,-4.4569,-4.4675,-4.4681,-4.4765,-4.4645,-4.4647,-4.4649,0,-4.3989,-4.4043,-4.4148,-4.4207,-4.4231,-4.4281,-4.4342,-4.4392,-4.4444,-4.446,-4.4502,-4.451,-4.4578,-4.4546,-4.4639,-4.4598,-4.463,-4.465,-4.4654,-4.4658,-4.462,-4.4679,-4.4792,-4.4803,-4.4668,-4.4666,-4.4665,0,-4.4036,-4.4136,-4.4212,-4.4239,-4.431,-4.4345,-4.4376,-4.4426,-4.4464,-4.4518,-4.4542,-4.4603,-4.4635,-4.4682,-4.4707,-4.4682,-4.4799,-4.4768,-4.4812,-4.4812,-4.4833,-4.483,-4.4949,-4.4859,-4.4859,-4.4858,-4.4858,0,-4.4123,-4.4186,-4.4234,-4.428,-4.4353,-4.438,-4.445,-4.4481,-4.4527,-4.4579,-4.459,-4.4639,-4.467,-4.4724,-4.4745,-4.4819,-4.4834,-4.4848,-4.4852,-4.4845,-4.4843,-4.4863,-4.4857,-4.4862,-4.4861,-4.486,-4.486,0,-4.4185,-4.422,-4.4303,-4.4365,-4.4383,-4.4433,-4.4486,-4.4531,-4.456,-4.4626,-4.4643,-4.4687,-4.4751,-4.4783,-4.4862,-4.4876,-4.4959,-4.4961,-4.4941,-4.4942,-4.4984,-4.4979,-4.5117,-4.5137,-4.5036,-4.5037,-4.5037,0,-4.4236,-4.4286,-4.4355,-4.4392,-4.4424,-4.4483,-4.4522,-4.4553,-4.4593,-4.4659,-4.4697,-4.4763,-4.4816,-4.4919,-4.4957,-4.5018,-4.502,-4.5065,-4.5029,-4.5021,-4.5018,-4.5014,-4.5019,-4.5069,-4.507,-4.5071,-4.5072,0,-4.4323,-4.4339,-4.4396,-4.446,-4.4507,-4.4559,-4.4609,-4.4639,-4.4677,-4.4722,-4.479,-4.4832,-4.4915,-4.4979,-4.5045,-4.5076,-4.508,-4.5084,-4.5097,-4.5088,-4.5074,-4.5081,-4.4956,-4.5079,-4.5078,-4.5078,-4.5077,-4.5077,-4.438,-4.4425,-4.4481,-4.4545,-4.4587,-4.4635,-4.4681,-4.4717,-4.4774,-4.4845,-4.486,-4.4931,-4.4986,-4.5074,-4.5109,-4.5165,-4.5155,-4.5174,-4.5178,-4.5182,-4.5183,-4.5069,-4.5177,-4.5177,-4.5177,-4.5177,-4.5177,0,-4.4466,-4.4503,-4.4562,-4.4634,-4.4685,-4.4688,-4.4745,-4.4787,-4.485,-4.4901,-4.4955,-4.5033,-4.5098,-4.5143,-4.5209,-4.5245,-4.5249,-4.5261,-4.5257,-4.5264,-4.5189,-4.517,-4.5257,-4.5257,-4.5257,-4.5257,-4.5257,-4.5257,-4.4516,-4.4592,-4.4615,-4.4714,-4.4751,-4.4822,-4.4854,-4.4899,-4.4941,-4.5028,-4.5082,-4.5113,-4.5162,-4.5232,-4.5292,-4.5304,-4.5326,-4.5338,-4.5349,-4.5278,-4.5269,-4.5261,-4.5243,-4.5344,-4.5344,-4.5419,-4.542,-4.5421]},{"header":{"parameterUnit":"m.s-1","parameterCategory":1,"la1":30.2991,"la2":30.254,"lo1":-89.0895,"lo2":-89.0444,"dy":0.0017,"dx":0.0017,"nx":28,"ny":28,"refTime":"2024-03-12T09:00:00:Z","depth":0,"parameterNumber":3,"parameterNumberName":"V-component_of_WINDS"},"data":[0,0,0,0,0,0,0,0,0,0,0,0,0,0,0,0,0,0,0,0,0,0,0,0,0,0,0,0,0,0,0,0,0,0,0,0,0,0,0,0,0,0,0,0,0,0,0,0,0,0,0,0,0,0,0,0,0,0,1.5719,1.572,0,1.5843,1.5845,1.5846,1.5977,1.5978,1.598,1.5982,1.6108,1.611,1.6112,0,0,0,0,0,0,0,0,0,0,0,0,0,1.5594,1.5596,1.5719,1.572,1.5722,1.5843,1.5845,1.5847,1.5976,1.5978,1.5981,1.5983,1.6108,1.611,1.6112,0,0,0,0,0,0,0,0,0,0,0,0,0,1.5676,1.5596,1.5718,1.5801,1.581,1.5843,1.5845,1.5847,1.5976,1.5979,1.5981,1.5984,1.6107,1.611,1.6112,1.6073,0,0,1.612,1.6121,0,0,0,0,0,0,0,0,1.5671,1.5681,1.5787,1.5796,1.5805,1.5897,1.5847,1.5923,1.5975,1.5913,1.5982,1.5985,1.6036,1.6044,1.6062,1.6079,1.6084,1.612,1.6121,1.6122,1.6123,0,0,0,0,0,0,0,1.5665,1.5676,1.5768,1.5789,1.58,1.5832,1.5847,1.5862,1.5957,1.5918,1.5928,1.5941,1.6041,1.6059,1.6066,1.6086,1.612,1.6122,1.6124,1.6125,1.6081,1.6078,0,0,0,0,0,0,1.5647,1.567,1.5764,1.5772,1.5744,1.5832,1.5849,1.5865,1.5958,1.5974,1.5939,1.5947,1.6053,1.6063,1.6071,1.6033,1.6122,1.6125,1.6126,1.6084,1.608,1.6077,0,0,0,0,0,0,1.5644,1.5654,1.5759,1.5724,1.574,1.5832,1.5849,1.5866,1.5884,1.5973,1.5991,1.5939,1.6056,1.6067,1.6072,1.604,1.6126,1.6128,1.6087,1.6083,1.6079,1.5957,0,0,0,0,0,0,1.564,1.5652,1.5638,1.5723,1.5741,1.5758,1.5847,1.5866,1.5888,1.59,1.5978,1.5994,1.6059,1.6068,1.6075,1.6045,1.613,1.609,1.6085,1.608,1.5964,1.5949,1.5936,0,0,0,0,0,1.5635,1.5598,1.5637,1.5647,1.5725,1.5756,1.5766,1.5842,1.5885,1.5872,1.5929,1.5991,1.6042,1.6067,1.6076,1.6046,1.6093,1.6086,1.6081,1.597,1.5952,1.5936,0,0,0,0,0,0,1.5507,1.561,1.5655,1.5644,1.569,1.5778,1.5764,1.582,1.5855,1.5864,1.5957,1.5973,1.5968,1.6008,1.6034,1.6015,1.6076,1.6071,1.5989,1.5973,1.5959,1.595,1.6132,0,0,0,0,0,1.5477,1.5493,1.5583,1.5565,1.5586,1.567,1.5686,1.5741,1.5793,1.5813,1.5871,1.5918,1.5945,1.5961,1.599,1.597,1.599,1.5954,1.594,1.5928,1.5924,1.5919,1.5904,1.6058,1.6058,1.6058,0,0,1.5416,1.5475,1.5479,1.5541,1.5583,1.5598,1.5686,1.5698,1.5711,1.5814,1.5824,1.5868,1.5927,1.592,1.592,1.5953,1.5886,1.5921,1.591,1.5913,1.5911,1.5896,1.5883,1.6054,1.6054,1.6055,0,0,1.5314,1.5359,1.535,1.5391,1.5454,1.5511,1.5508,1.5588,1.5622,1.5633,1.5712,1.5728,1.5772,1.5812,1.5837,1.5752,1.5811,1.5759,1.5686,1.568,1.5668,1.5658,1.5629,1.5617,1.5753,1.5753,1.5753,0,1.523,1.5256,1.5338,1.5346,1.5371,1.5467,1.5459,1.5495,1.5564,1.558,1.5616,1.5675,1.5721,1.5726,1.5705,1.5722,1.5724,1.5751,1.5663,1.5654,1.5645,1.5619,1.5608,1.5747,1.5747,1.5748,1.5749,0,1.5151,1.5168,1.5154,1.5219,1.5243,1.5242,1.5325,1.5339,1.5392,1.5445,1.5456,1.5515,1.5559,1.5564,1.5615,1.5577,1.5596,1.5646,1.571,1.5623,1.56,1.559,1.5737,1.5739,1.5741,1.5743,0,0,1.4971,1.5083,1.5077,1.5109,1.5186,1.5201,1.5206,1.525,1.5261,1.5306,1.5314,1.5349,1.5397,1.5426,1.5483,1.5477,1.5408,1.5528,1.5531,1.5506,1.5372,1.5335,1.5322,1.5447,1.5446,1.5444,1.5368,0,1.4884,1.4898,1.4973,1.4966,1.4984,1.5076,1.508,1.5128,1.5178,1.5201,1.5256,1.5281,1.5341,1.536,1.5358,1.5416,1.5383,1.5423,1.5456,1.5457,1.544,1.531,1.5271,1.5196,1.5359,1.5358,1.5357,0,1.4783,1.4823,1.4818,1.4898,1.4908,1.491,1.4958,1.4978,1.5035,1.5072,1.5106,1.517,1.5181,1.524,1.5258,1.5283,1.5301,1.5332,1.5331,1.5338,1.5402,1.5315,1.5173,1.5162,1.5343,1.5344,1.5345,0,1.4655,1.4707,1.4712,1.4736,1.4828,1.4828,1.4866,1.4926,1.4949,1.499,1.5006,1.5048,1.5071,1.5102,1.5176,1.5212,1.5186,1.5251,1.5219,1.5217,1.521,1.521,1.507,1.5218,1.5218,1.5219,1.5219,0,1.4551,1.4544,1.4656,1.4658,1.4655,1.4741,1.4735,1.4782,1.4835,1.4849,1.4931,1.4942,1.5038,1.5061,1.5119,1.5127,1.5136,1.5167,1.5183,1.5161,1.5157,1.5175,1.5182,1.5216,1.5216,1.5217,1.5217,0,1.4407,1.4481,1.4493,1.4579,1.4601,1.4594,1.4669,1.4676,1.4731,1.4748,1.4757,1.4844,1.4876,1.4952,1.5003,1.5042,1.5035,1.5063,1.5016,1.5026,1.4991,1.4993,1.4859,1.4847,1.5,1.4998,1.4997,0,1.4336,1.4334,1.4421,1.4436,1.4472,1.4495,1.4519,1.4604,1.4625,1.4691,1.469,1.4729,1.4764,1.481,1.4878,1.4918,1.4949,1.4899,1.4955,1.4934,1.4951,1.495,1.4952,1.4887,1.4884,1.4883,1.4881,0,1.4203,1.4241,1.4272,1.4316,1.4342,1.4381,1.4424,1.4432,1.4528,1.4548,1.4582,1.4609,1.4663,1.47,1.4751,1.4792,1.4853,1.4863,1.4858,1.4837,1.481,1.4826,1.4984,1.4866,1.4868,1.4869,1.487,1.487,1.4096,1.4099,1.4161,1.4194,1.4235,1.4274,1.4286,1.4343,1.4372,1.4423,1.4471,1.45,1.456,1.4635,1.4671,1.4696,1.4727,1.4719,1.4718,1.4715,1.4706,1.4805,1.4705,1.4706,1.4706,1.4706,1.4707,0,1.397,1.4014,1.4043,1.4102,1.4127,1.4183,1.4234,1.4252,1.4277,1.4327,1.4361,1.44,1.4437,1.4508,1.4552,1.4558,1.4588,1.4567,1.4569,1.4577,1.4674,1.4675,1.4543,1.4543,1.4543,1.4543,1.4543,1.4543,1.3907,1.3916,1.396,1.3991,1.4036,1.4066,1.4091,1.4127,1.4168,1.4209,1.4241,1.4287,1.4346,1.4395,1.4432,1.4452,1.4465,1.4436,1.4465,1.4555,1.457,1.4585,1.4586,1.4438,1.4437,1.4367,1.4366,1.4365]}]]